Total_Precipitation_Accumulation
0.00 0.00 0.00 0.00 0.00 0.00 0.00 0.00 0.00 0.01 0.01 0.02 0.04 0.04 0.02 0.02 0.04 0.17 0.06 0.02 0.01 0.00 0.00 0.00 0.01 0.02 0.02 0.02 0.04 0.06 0.08 0.09 0.09 0.09 0.08 0.08 0.07 0.06 0.06 0.06 0.09 0.12 0.14 0.12 0.09 0.08 0.07 0.05 0.02
0.00 0.00 0.00 0.00 0.00 0.00 0.00 0.00 0.01 0.01 0.03 0.04 0.03 0.01 0.00 0.00 0.00 0.00 0.01 0.01 0.00 0.00 0.00 0.00 0.00 0.02 0.02 0.01 0.02 0.05 0.07 0.08 0.08 0.08 0.07 0.07 0.07 0.07 0.07 0.09 0.13 0.19 0.22 0.22 0.17 0.13 0.10 0.07 0.03
0.00 0.00 0.00 0.00 0.00 0.00 0.00 0.01 0.02 0.01 0.02 0.03 0.02 0.01 0.00 0.00 0.00 0.00 0.00 0.00 0.00 0.00 0.00 0.00 0.00 0.01 0.01 0.01 0.01 0.03 0.06 0.06 0.07 0.07 0.07 0.07 0.07 0.07 0.10 0.13 0.17 0.23 0.24 0.22 0.19 0.17 0.15 0.08 0.02
0.00 0.00 0.00 0.00 0.00 0.00 0.01 0.03 0.04 0.02 0.02 0.02 0.01 0.01 0.00 0.00 0.00 0.00 0.01 0.01 0.00 0.00 0.00 0.00 0.01 0.01 0.01 0.01 0.01 0.03 0.05 0.07 0.08 0.10 0.10 0.09 0.09 0.09 0.13 0.20 0.25 0.25 0.24 0.23 0.24 0.23 0.18 0.10 0.04
0.00 0.00 0.00 0.00 0.00 0.00 0.01 0.02 0.03 0.03 0.02 0.01 0.01 0.01 0.01 0.00 0.00 0.00 0.01 0.01 0.01 0.01 0.00 0.00 0.01 0.01 0.01 0.01 0.02 0.04 0.07 0.10 0.14 0.18 0.16 0.12 0.12 0.13 0.17 0.24 0.27 0.26 0.29 0.29 0.27 0.21 0.14 0.06 0.04
0.00 0.00 0.00 0.00 0.00 0.00 0.00 0.01 0.02 0.02 0.02 0.02 0.01 0.03 0.03 0.00 0.00 0.00 0.01 0.01 0.02 0.01 0.01 0.01 0.03 0.03 0.02 0.02 0.04 0.07 0.10 0.13 0.15 0.16 0.14 0.13 0.12 0.12 0.18 0.21 0.21 0.24 0.25 0.19 0.12 0.09 0.06 0.05 0.05
0.00 0.00 0.00 0.00 0.00 0.00 0.00 0.01 0.01 0.02 0.02 0.02 0.02 0.02 0.02 0.00 0.00 0.00 0.00 0.02 0.04 0.05 0.06 0.05 0.06 0.04 0.02 0.03 0.04 0.05 0.06 0.07 0.10 0.12 0.11 0.10 0.09 0.09 0.11 0.12 0.14 0.15 0.11 0.07 0.05 0.03 0.03 0.03 0.02
0.00 0.00 0.00 0.00 0.00 0.00 0.01 0.01 0.02 0.02 0.03 0.02 0.01 0.02 0.05 0.01 0.00 0.00 0.02 0.07 0.12 0.18 0.16 0.04 0.02 0.02 0.01 0.01 0.01 0.02 0.03 0.04 0.05 0.07 0.07 0.07 0.07 0.07 0.07 0.07 0.08 0.09 0.08 0.05 0.03 0.01 0.01 0.01 0.00
0.00 0.00 0.00 0.00 0.00 0.00 0.00 0.01 0.02 0.03 0.02 0.01 0.01 0.02 0.09 0.02 0.00 0.01 0.04 0.09 0.11 0.09 0.06 0.02 0.01 0.01 0.00 0.01 0.00 0.00 0.01 0.01 0.03 0.05 0.05 0.06 0.07 0.07 0.07 0.05 0.06 0.07 0.07 0.02 0.01 0.00 0.00 0.00 0.00
0.00 0.00 0.00 0.00 0.00 0.00 0.00 0.01 0.02 0.02 0.02 0.01 0.01 0.03 0.06 0.02 0.01 0.04 0.10 0.14 0.10 0.05 0.03 0.02 0.01 0.00 0.00 0.00 0.01 0.01 0.01 0.01 0.03 0.06 0.03 0.07 0.12 0.14 0.12 0.10 0.07 0.04 0.03 0.01 0.00 0.00 0.00 0.00 0.00
0.00 0.00 0.00 0.00 0.00 0.00 0.00 0.01 0.03 0.02 0.02 0.02 0.04 0.07 0.05 0.02 0.02 0.05 0.09 0.14 0.20 0.18 0.04 0.02 0.01 0.01 0.01 0.00 0.00 0.00 0.01 0.01 0.03 0.05 0.05 0.10 0.10 0.10 0.11 0.12 0.06 0.03 0.02 0.02 0.02 0.00 0.00 0.00 0.00
0.00 0.00 0.00 0.00 0.00 0.00 0.00 0.00 0.01 0.01 0.02 0.04 0.07 0.11 0.08 0.03 0.03 0.06 0.08 0.06 0.07 0.05 0.01 0.01 0.01 0.01 0.01 0.00 0.00 0.01 0.01 0.01 0.02 0.03 0.04 0.09 0.12 0.13 0.18 0.15 0.11 0.07 0.06 0.05 0.03 0.01 0.01 0.01 0.00
0.00 0.00 0.00 0.00 0.00 0.00 0.00 0.00 0.00 0.01 0.02 0.04 0.05 0.06 0.05 0.02 0.02 0.04 0.05 0.06 0.04 0.02 0.01 0.01 0.01 0.00 0.00 0.00 0.00 0.01 0.01 0.01 0.02 0.04 0.04 0.07 0.10 0.13 0.15 0.11 0.09 0.06 0.06 0.05 0.03 0.01 0.02 0.04 0.03
0.00 0.00 0.00 0.00 0.00 0.00 0.00 0.00 0.00 0.00 0.01 0.02 0.04 0.04 0.04 0.03 0.03 0.09 0.12 0.10 0.09 0.04 0.01 0.01 0.00 0.00 0.00 0.00 0.00 0.00 0.01 0.03 0.03 0.05 0.05 0.05 0.08 0.16 0.15 0.12 0.11 0.07 0.05 0.04 0.03 0.01 0.01 0.02 0.02
0.00 0.00 0.00 0.00 0.00 0.00 0.00 0.00 0.00 0.00 0.00 0.01 0.01 0.01 0.02 0.03 0.04 0.08 0.12 0.10 0.12 0.05 0.01 0.01 0.01 0.01 0.00 0.00 0.01 0.01 0.02 0.05 0.08 0.09 0.08 0.06 0.08 0.12 0.12 0.14 0.13 0.10 0.07 0.06 0.04 0.03 0.02 0.02 0.02
0.00 0.00 0.00 0.00 0.00 0.00 0.00 0.00 0.00 0.00 0.00 0.00 0.01 0.01 0.02 0.02 0.03 0.05 0.08 0.09 0.11 0.07 0.03 0.02 0.01 0.02 0.01 0.02 0.02 0.02 0.03 0.06 0.07 0.08 0.08 0.08 0.08 0.11 0.15 0.18 0.18 0.16 0.15 0.14 0.13 0.11 0.10 0.11 0.10
0.00 0.00 0.00 0.00 0.00 0.00 0.00 0.00 0.00 0.00 0.00 0.00 0.00 0.00 0.01 0.02 0.02 0.05 0.09 0.14 0.17 0.12 0.07 0.03 0.02 0.03 0.04 0.05 0.04 0.05 0.07 0.08 0.09 0.10 0.12 0.13 0.14 0.17 0.24 0.28 0.29 0.29 0.27 0.27 0.24 0.22 0.20 0.19 0.18
0.00 0.00 0.00 0.00 0.00 0.00 0.00 0.00 0.00 0.00 0.00 0.00 0.00 0.00 0.01 0.01 0.02 0.06 0.11 0.23 0.32 0.22 0.13 0.08 0.07 0.06 0.07 0.07 0.08 0.12 0.14 0.17 0.22 0.26 0.30 0.32 0.33 0.36 0.41 0.41 0.43 0.42 0.38 0.36 0.30 0.26 0.22 0.18 0.16
0.00 0.00 0.00 0.00 0.00 0.00 0.00 0.00 0.00 0.00 0.00 0.00 0.00 0.00 0.00 0.01 0.03 0.07 0.19 0.25 0.28 0.21 0.14 0.13 0.18 0.17 0.16 0.19 0.24 0.36 0.47 0.56 0.67 0.76 0.78 0.72 0.66 0.65 0.63 0.60 0.58 0.53 0.49 0.45 0.39 0.32 0.26 0.22 0.18
0.00 0.00 0.00 0.00 0.00 0.00 0.00 0.00 0.00 0.00 0.00 0.00 0.00 0.00 0.01 0.02 0.04 0.10 0.19 0.27 0.27 0.26 0.19 0.17 0.20 0.29 0.38 0.52 0.73 0.95 1.12 1.30 1.43 1.45 1.26 1.09 1.01 0.94 0.89 0.85 0.80 0.73 0.67 0.58 0.48 0.40 0.33 0.25 0.19
0.00 0.00 0.00 0.00 0.00 0.00 0.00 0.00 0.00 0.00 0.00 0.00 0.00 0.00 0.01 0.02 0.04 0.09 0.16 0.23 0.28 0.27 0.27 0.28 0.37 0.56 0.76 0.95 1.18 1.42 1.63 1.76 1.76 1.64 1.45 1.34 1.27 1.20 1.10 1.00 0.92 0.83 0.74 0.65 0.55 0.45 0.34 0.24 0.16
0.00 0.00 0.00 0.00 0.00 0.00 0.00 0.00 0.00 0.00 0.00 0.00 0.00 0.00 0.00 0.01 0.03 0.09 0.14 0.23 0.29 0.32 0.36 0.43 0.60 0.88 1.09 1.31 1.55 1.86 2.09 2.09 2.00 1.78 1.57 1.45 1.32 1.14 0.99 0.94 0.90 0.80 0.67 0.53 0.40 0.30 0.22 0.15 0.09
0.00 0.00 0.00 0.00 0.00 0.00 0.00 0.00 0.00 0.00 0.00 0.00 0.00 0.00 0.01 0.01 0.02 0.08 0.12 0.21 0.31 0.35 0.43 0.55 0.79 1.16 1.50 1.86 2.13 2.27 2.20 2.01 1.81 1.57 1.35 1.16 1.01 0.89 0.80 0.75 0.68 0.55 0.41 0.27 0.18 0.13 0.09 0.06 0.03
0.00 0.00 0.00 0.00 0.00 0.00 0.00 0.00 0.00 0.00 0.00 0.00 0.01 0.01 0.02 0.02 0.03 0.08 0.13 0.22 0.34 0.49 0.59 0.74 1.00 1.39 1.70 1.93 2.06 1.92 1.69 1.54 1.33 1.08 0.88 0.71 0.59 0.52 0.44 0.35 0.28 0.21 0.14 0.08 0.05 0.04 0.03 0.02 0.02
0.00 0.00 0.00 0.00 0.00 0.00 0.00 0.00 0.00 0.00 0.00 0.01 0.01 0.02 0.03 0.03 0.04 0.09 0.15 0.23 0.39 0.56 0.71 0.86 1.01 1.19 1.34 1.44 1.47 1.34 1.16 0.95 0.80 0.62 0.49 0.39 0.31 0.25 0.20 0.14 0.09 0.06 0.04 0.03 0.02 0.02 0.01 0.01 0.01
0.00 0.00 0.00 0.00 0.00 0.00 0.00 0.00 0.01 0.01 0.01 0.02 0.02 0.03 0.04 0.06 0.08 0.13 0.21 0.30 0.43 0.58 0.69 0.74 0.80 0.87 0.86 0.81 0.77 0.71 0.63 0.54 0.45 0.35 0.27 0.21 0.16 0.11 0.08 0.05 0.03 0.03 0.02 0.01 0.01 0.01 0.01 0.01 0.01
0.00 0.00 0.00 0.00 0.00 0.00 0.00 0.01 0.02 0.02 0.02 0.02 0.03 0.04 0.06 0.10 0.14 0.18 0.24 0.32 0.39 0.45 0.48 0.49 0.48 0.49 0.47 0.41 0.39 0.36 0.32 0.29 0.24 0.17 0.12 0.09 0.07 0.05 0.03 0.02 0.02 0.01 0.01 0.01 0.00 0.00 0.00 0.01 0.01
0.00 0.00 0.00 0.00 0.00 0.00 0.00 0.00 0.01 0.02 0.03 0.04 0.04 0.06 0.10 0.16 0.20 0.23 0.26 0.29 0.31 0.31 0.32 0.32 0.29 0.29 0.28 0.25 0.24 0.21 0.18 0.15 0.11 0.08 0.06 0.05 0.04 0.03 0.02 0.02 0.01 0.01 0.01 0.00 0.01 0.01 0.00 0.00 0.01
0.00 0.00 0.00 0.00 0.00 0.00 0.00 0.04 0.04 0.07 0.06 0.04 0.05 0.08 0.15 0.21 0.25 0.29 0.31 0.27 0.25 0.23 0.23 0.23 0.22 0.20 0.17 0.15 0.13 0.11 0.09 0.07 0.05 0.04 0.03 0.03 0.02 0.01 0.01 0.01 0.00 0.00 0.00 0.00 0.00 0.01 0.01 0.01 0.01
0.00 0.00 0.00 0.00 0.00 0.00 0.01 0.08 0.05 0.12 0.14 0.11 0.11 0.17 0.23 0.25 0.27 0.31 0.29 0.23 0.23 0.23 0.22 0.20 0.16 0.13 0.11 0.09 0.06 0.05 0.05 0.04 0.03 0.03 0.02 0.01 0.01 0.01 0.00 0.00 0.00 0.01 0.01 0.01 0.01 0.01 0.02 0.03 0.03